Location: Bern�tre
(50.1974°N, 2.0915°E)
Time: 02:20:12
(UTC+00:00)

Okean 1-7 Rocket - Pass Details

Date: 18 September 2020
Orbit: 616 x 649 km, 82.5° (Epoch: 24 October)

Event Time Altitude Azimuth Distance (km) Brightness Sun altitude
Rises 20:40:47 0° 352° (N) 2,980 7.7 -25.1°
Reaches altitude 10° 20:43:05 10° 355° (N) 2,066 6.8 -25.4°
Enters shadow 20:46:41 50° 23° (NNE) 828 4.2 -25.8°
